Weather History for KBFF - October, 2013

Change the Weather History Date:

Saturday, October 12, 2013

  Actual Average Record
Temperature  
Mean Temperature 46 °F 50 °F  
Max Temperature 60 °F 66 °F 88 °F (1991)
Min Temperature 31 °F 34 °F 18 °F (1977)
Degree Days  
Heating Degree Days 19 15  
Month to date heating degree days 180 156  
Since 1 July heating degree days 268 335  
Cooling Degree Days 0 0  
Month to date cooling degree days 0 0  
Year to date cooling degree days 1047 723  
Moisture  
Dew Point 37 °F    
Average Humidity 71    
Maximum Humidity 96    
Minimum Humidity 46    
Precipitation  
Precipitation 0.00 in 0.04 in 0.55 in (2008)
Month to date precipitation 1.34 0.48  
Year to date precipitation 11.56 13.96  
Snow  
Snow 0.00 in 0.10 in 4.30 in (1969)
Month to date snowfall 6.1 0.7  
Since 1 July snowfall 6.1 1.2  
Snow Depth 0.00 in    
Sea Level Pressure  
Sea Level Pressure 30.16 in    
Wind  
Wind Speed 7 mph (SE)    
Max Wind Speed 15 mph    
Max Gust Speed 26 mph    
Visibility 10 miles    
Events      
T = Trace of Precipitation, MM = Missing Value Source: NWS Daily Summary

Daily Weather History Graph

Daily Weather History Graph

Search for Another Location

Airport or City:

Trip Planner

Search our weather history database for the weather conditions in past years. The results will help you decide how hot, cold, wet, or windy it might be!

Date:

Astronomy

Oct. 12, 2013 Rise Set
Actual Time 7:03 AM MDT 6:17 PM MDT
Civil Twilight 6:35 AM MDT 6:45 PM MDT
Nautical Twilight 6:03 AM MDT 7:17 PM MDT
Astronomical Twilight 5:31 AM MDT 7:49 PM MDT
Moon 2:33 PM MDT (10/12) 12:04 AM MDT (10/12)
Length of Visible Light 12h 09m
Length of Day
11h 13m
First Quarter, 59% of the Moon is Illuminated
Oct 12
First Quarter
Oct 18
Full
Oct 26
Last Quarter
Nov 3
New
Nov 9
First Quarter

Hourly Weather History & Observations

Time (MDT) Temp. Windchill Dew Point Humidity Pressure Visibility Wind Dir Wind Speed Gust Speed Precip Events Conditions
12:53 AM 39.9 °F 35.8 °F 34.0 °F 79% 30.11 in 10.0 mi WNW 5.8 mph - N/A   Overcast
1:53 AM 37.9 °F - 34.0 °F 86% 30.12 in 10.0 mi Calm Calm - N/A   Overcast
2:53 AM 37.0 °F 33.3 °F 34.0 °F 89% 30.12 in 10.0 mi NW 4.6 mph - N/A   Scattered Clouds
3:53 AM 35.1 °F 32.2 °F 32.0 °F 89% 30.14 in 10.0 mi West 3.5 mph - N/A   Clear
4:53 AM 35.1 °F 32.2 °F 33.1 °F 92% 30.15 in 10.0 mi WNW 3.5 mph - N/A   Clear
5:53 AM 34.0 °F - 32.0 °F 92% 30.17 in 10.0 mi Calm Calm - N/A   Clear
6:53 AM 32.0 °F - 30.9 °F 96% 30.22 in 10.0 mi Calm Calm - N/A   Clear
7:53 AM 35.1 °F 30.1 °F 33.1 °F 92% 30.23 in 10.0 mi North 5.8 mph - N/A   Partly Cloudy
8:53 AM 41.0 °F - 36.0 °F 82% 30.22 in 10.0 mi Calm Calm - N/A   Mostly Cloudy
9:53 AM 44.1 °F - 36.0 °F 73% 30.22 in 10.0 mi Calm Calm - N/A   Clear
10:53 AM 48.9 °F - 35.1 °F 59% 30.20 in 10.0 mi Variable 3.5 mph - N/A   Clear
11:53 AM 51.1 °F - 34.0 °F 52% 30.19 in 10.0 mi SE 6.9 mph - N/A   Clear
12:53 PM 55.9 °F - 36.0 °F 47% 30.14 in 10.0 mi South 9.2 mph 16.1 mph N/A   Clear
1:53 PM 57.0 °F - 37.9 °F 49% 30.12 in 10.0 mi SE 13.8 mph - N/A   Partly Cloudy
2:53 PM 57.0 °F - 39.9 °F 53% 30.12 in 10.0 mi SSE 11.5 mph - N/A   Mostly Cloudy
3:53 PM 60.1 °F - 39.9 °F 47% 30.10 in 10.0 mi South 11.5 mph - N/A   Scattered Clouds
4:53 PM 59.0 °F - 41.0 °F 51% 30.10 in 10.0 mi SSE 11.5 mph 19.6 mph N/A   Clear
5:53 PM 55.0 °F - 43.0 °F 64% 30.11 in 10.0 mi ESE 10.4 mph - N/A   Clear
6:53 PM 48.9 °F - 43.0 °F 80% 30.16 in 10.0 mi East 8.1 mph - N/A   Partly Cloudy
7:53 PM 46.9 °F - 43.0 °F 86% 30.17 in 10.0 mi ESE 9.2 mph - N/A   Scattered Clouds
8:53 PM 46.9 °F - 42.1 °F 83% 30.16 in 10.0 mi ESE 11.5 mph - N/A   Partly Cloudy
9:53 PM 45.0 °F 41.2 °F 42.1 °F 90% 30.17 in 10.0 mi ESE 6.9 mph - N/A   Clear
10:53 PM 44.1 °F 39.0 °F 41.0 °F 89% 30.17 in 10.0 mi ESE 9.2 mph - N/A   Clear
11:53 PM 43.0 °F 37.2 °F 39.9 °F 89% 30.17 in 10.0 mi ESE 10.4 mph - N/A   Clear